Weather History for Seward, AK

Change the Weather History Date:

Tuesday, November 20, 2012

  Actual Average Record
Temperature  
Mean Temperature 20 °F -  
Max Temperature 21 °F 35 °F 48 °F (1949)
Min Temperature 18 °F 26 °F 9 °F (1974)
Degree Days  
Heating Degree Days 46    
Moisture  
Dew Point 8 °F    
Average Humidity 62    
Maximum Humidity 71    
Minimum Humidity 55    
Precipitation  
Precipitation 0.00 in - - ()
Sea Level Pressure  
Sea Level Pressure 29.56 in    
Wind  
Wind Speed 18 mph (NNE)    
Max Wind Speed 25 mph    
Max Gust Speed 34 mph    
Visibility 10 miles    
Events      
Averages and records for this station are not official NWS values.
T = Trace of Precipitation, MM = Missing Value Source: NWS Daily Summary

Daily Weather History Graph

Daily Weather History Graph

Search for Another Location

Airport:

Trip Planner

Search our weather history database for the weather conditions in past years. The results will help you decide how hot, cold, wet, or windy it might be!

Date:

Astronomy

Nov. 20, 2012 Rise Set
Actual Time 9:10 AM AKST 4:15 PM AKST
Civil Twilight 8:19 AM AKST 5:06 PM AKST
Nautical Twilight 7:26 AM AKST 6:00 PM AKST
Astronomical Twilight 6:36 AM AKST 6:49 PM AKST
Moon 1:49 PM AKST (11/20) No Moon Set
Length of Visible Light 8h 47m
Length of Day
7h 05m
First Quarter, 53% of the Moon is Illuminated
Nov 20
First Quarter
Nov 28
Full
Dec 6
Last Quarter
Dec 12
New
Dec 19
First Quarter

Hourly Weather History & Observations

Time (AKST) Temp. Windchill Dew Point Humidity Pressure Visibility Wind Dir Wind Speed Gust Speed Precip Events Conditions
12:53 AM 19.9 °F 5.2 °F 7.0 °F 57% 29.46 in 10.0 mi NNE 17.3 mph 28.8 mph N/A   Clear
1:53 AM 19.9 °F 4.3 °F 6.1 °F 55% 29.47 in 10.0 mi NNE 19.6 mph 34.5 mph N/A   Clear
3:53 AM 19.0 °F 4.5 °F 7.0 °F 59% 29.51 in 10.0 mi NNE 16.1 mph 28.8 mph N/A   Clear
4:53 AM 18.0 °F 4.8 °F 8.1 °F 65% 29.52 in 10.0 mi NNE 12.7 mph 25.3 mph N/A   Clear
5:53 AM 18.0 °F 3.1 °F 7.0 °F 62% 29.54 in 10.0 mi North 16.1 mph 21.9 mph N/A   Mostly Cloudy
6:53 AM 18.0 °F 3.6 °F 7.0 °F 62% 29.55 in 10.0 mi NNE 15.0 mph 26.5 mph N/A   Clear
7:53 AM 18.0 °F 4.2 °F 7.0 °F 62% 29.56 in 10.0 mi North 13.8 mph 27.6 mph N/A   Clear
8:53 AM 18.0 °F 4.8 °F 7.0 °F 62% 29.57 in 10.0 mi NNE 12.7 mph 23.0 mph N/A   Clear
9:53 AM 18.0 °F 3.1 °F 7.0 °F 62% 29.57 in 10.0 mi North 16.1 mph 26.5 mph N/A   Mostly Cloudy
10:53 AM 18.0 °F 4.2 °F 6.1 °F 60% 29.57 in 10.0 mi North 13.8 mph 24.2 mph N/A   Clear
11:53 AM 19.9 °F 5.2 °F 7.0 °F 57% 29.58 in 10.0 mi NNE 17.3 mph 31.1 mph N/A   Clear
12:53 PM 19.9 °F 6.2 °F 8.1 °F 60% 29.58 in 10.0 mi North 15.0 mph 27.6 mph N/A   Mostly Cloudy
1:53 PM 21.0 °F 5.7 °F 8.1 °F 57% 29.56 in 10.0 mi North 19.6 mph 33.4 mph N/A   Overcast
2:53 PM 21.9 °F 6.9 °F 9.0 °F 58% 29.57 in 10.0 mi NNE 19.6 mph 34.5 mph N/A   Overcast
3:53 PM 21.9 °F 6.5 °F 9.0 °F 58% 29.57 in 10.0 mi North 20.7 mph 34.5 mph N/A   Overcast
4:53 PM 21.0 °F 4.6 °F 10.0 °F 63% 29.58 in 10.0 mi NNE 23.0 mph 34.5 mph N/A   Overcast
5:53 PM 21.0 °F 3.9 °F 10.0 °F 63% 29.58 in 10.0 mi North 25.3 mph 33.4 mph N/A   Overcast
6:53 PM 21.0 °F 5.7 °F 10.0 °F 63% 29.58 in 10.0 mi NNE 19.6 mph 33.4 mph N/A   Overcast
7:53 PM 19.9 °F 4.8 °F 10.9 °F 68% 29.58 in 10.0 mi North 18.4 mph 31.1 mph N/A   Overcast
8:53 PM 19.9 °F 3.5 °F 10.9 °F 68% 29.59 in 10.0 mi North 21.9 mph 33.4 mph N/A   Partly Cloudy
9:53 PM 19.0 °F 2.4 °F 10.0 °F 68% 29.59 in 10.0 mi North 21.9 mph 33.4 mph N/A   Clear
10:53 PM 19.0 °F 2.4 °F 10.0 °F 68% 29.59 in 10.0 mi North 21.9 mph 32.2 mph N/A   Clear
11:53 PM 18.0 °F 0.6 °F 10.0 °F 71% 29.59 in 10.0 mi NNE 23.0 mph 29.9 mph N/A   Clear